Time,TemperatureF,DewpointF,PressureIn,WindDirection,WindDirectionDegrees,WindSpeedMPH,WindSpeedGustMPH,Humidity,HourlyPrecipIn,Conditions,Clouds,dailyrainin,SoftwareType,DateUTC
2013-05-18 00:02:00,35.3,23.0,29.82,WSW,253,0.0,1.0,62,0.00,,,0.00,weatherlink.com 1.10,2013-05-18 06:02:00,
2013-05-18 00:17:00,34.9,23.0,29.82,WSW,253,0.0,1.0,63,0.00,,,0.00,weatherlink.com 1.10,2013-05-18 06:17:00,
2013-05-18 00:32:00,34.2,23.0,29.83,WSW,252,0.0,1.0,64,0.00,,,0.00,weatherlink.com 1.10,2013-05-18 06:32:00,
2013-05-18 00:47:00,33.5,23.0,29.83,WSW,252,0.0,1.0,66,0.00,,,0.00,weatherlink.com 1.10,2013-05-18 06:47:00,
2013-05-18 01:02:00,32.9,23.0,29.82,WSW,252,0.0,1.0,68,0.00,,,0.00,weatherlink.com 1.10,2013-05-18 07:02:00,
2013-05-18 01:17:00,32.3,23.0,29.82,WSW,251,0.0,1.0,69,0.00,,,0.00,weatherlink.com 1.10,2013-05-18 07:17:00,
2013-05-18 01:32:00,32.0,22.0,29.82,SSW,199,1.0,1.0,68,0.00,,,0.00,weatherlink.com 1.10,2013-05-18 07:32:00,
2013-05-18 01:47:00,31.7,23.0,29.82,SW,234,2.0,2.0,69,0.00,,,0.00,weatherlink.com 1.10,2013-05-18 07:47:00,
2013-05-18 02:02:00,31.6,23.0,29.82,WSW,237,0.0,1.0,71,0.00,,,0.00,weatherlink.com 1.10,2013-05-18 08:02:00,
2013-05-18 02:17:00,31.0,23.0,29.82,WSW,237,0.0,1.0,71,0.00,,,0.00,weatherlink.com 1.10,2013-05-18 08:17:00,
2013-05-18 02:32:00,30.7,23.0,29.82,WSW,237,1.0,1.0,73,0.00,,,0.00,weatherlink.com 1.10,2013-05-18 08:32:00,
2013-05-18 02:47:00,30.2,23.0,29.82,West,262,0.0,2.0,74,0.00,,,0.00,weatherlink.com 1.10,2013-05-18 08:47:00,
2013-05-18 03:02:00,30.7,22.0,29.82,WSW,252,0.0,2.0,71,0.00,,,0.00,weatherlink.com 1.10,2013-05-18 09:02:00,
2013-05-18 03:18:00,30.8,22.0,29.83,WSW,252,0.0,2.0,71,0.00,,,0.00,weatherlink.com 1.10,2013-05-18 09:18:00,
2013-05-18 03:33:00,30.4,23.0,29.83,WSW,252,0.0,1.0,75,0.00,,,0.00,weatherlink.com 1.10,2013-05-18 09:33:00,
2013-05-18 03:48:00,29.9,23.0,29.84,WSW,246,0.0,1.0,75,0.00,,,0.00,weatherlink.com 1.10,2013-05-18 09:48:00,
2013-05-18 04:03:00,29.2,23.0,29.84,WSW,246,1.0,1.0,78,0.00,,,0.00,weatherlink.com 1.10,2013-05-18 10:03:00,
2013-05-18 04:18:00,28.8,23.0,29.84,WSW,246,0.0,1.0,79,0.00,,,0.00,weatherlink.com 1.10,2013-05-18 10:18:00,
2013-05-18 04:33:00,28.7,23.0,29.84,WSW,246,0.0,1.0,78,0.00,,,0.00,weatherlink.com 1.10,2013-05-18 10:33:00,
2013-05-18 04:48:00,28.5,23.0,29.84,WSW,245,0.0,1.0,79,0.00,,,0.00,weatherlink.com 1.10,2013-05-18 10:48:00,
2013-05-18 05:03:00,28.3,23.0,29.84,WSW,245,0.0,1.0,80,0.00,,,0.00,weatherlink.com 1.10,2013-05-18 11:03:00,
2013-05-18 05:18:00,28.6,23.0,29.84,WSW,245,0.0,1.0,80,0.00,,,0.00,weatherlink.com 1.10,2013-05-18 11:18:00,
2013-05-18 05:33:00,29.0,24.0,29.84,WSW,242,1.0,1.0,80,0.00,,,0.00,weatherlink.com 1.10,2013-05-18 11:33:00,
2013-05-18 05:48:00,29.4,24.0,29.85,WSW,242,0.0,1.0,80,0.00,,,0.00,weatherlink.com 1.10,2013-05-18 11:48:00,
2013-05-18 06:03:00,29.8,24.0,29.84,WSW,242,0.0,1.0,80,0.00,,,0.00,weatherlink.com 1.10,2013-05-18 12:03:00,
2013-05-18 06:18:00,30.1,25.0,29.84,WSW,242,0.0,1.0,80,0.00,,,0.00,weatherlink.com 1.10,2013-05-18 12:18:00,
2013-05-18 06:33:00,30.3,25.0,29.84,SE,134,0.0,1.0,81,0.00,,,0.00,weatherlink.com 1.10,2013-05-18 12:33:00,
2013-05-18 06:48:00,31.1,26.0,29.84,SSE,163,0.0,1.0,81,0.00,,,0.00,weatherlink.com 1.10,2013-05-18 12:48:00,
2013-05-18 07:03:00,32.5,27.0,29.83,South,170,0.0,1.0,80,0.00,,,0.00,weatherlink.com 1.10,2013-05-18 13:03:00,
2013-05-18 07:18:00,33.1,27.0,29.84,ESE,103,1.0,2.0,78,0.00,,,0.00,weatherlink.com 1.10,2013-05-18 13:18:00,
2013-05-18 07:33:00,34.0,28.0,29.84,ESE,103,0.0,0.0,78,0.00,,,0.00,weatherlink.com 1.10,2013-05-18 13:33:00,
2013-05-18 07:48:00,35.5,28.0,29.84,ESE,103,0.0,1.0,74,0.00,,,0.00,weatherlink.com 1.10,2013-05-18 13:48:00,
2013-05-18 08:03:00,37.6,27.0,29.83,ESE,106,0.0,1.0,66,0.00,,,0.00,weatherlink.com 1.10,2013-05-18 14:03:00,
2013-05-18 08:18:00,40.4,27.0,29.82,East,94,2.0,2.0,59,0.00,,,0.00,weatherlink.com 1.10,2013-05-18 14:18:00,
2013-05-18 08:33:00,43.0,29.0,29.82,ESE,114,2.0,3.0,57,0.00,,,0.00,weatherlink.com 1.10,2013-05-18 14:33:00,
2013-05-18 08:48:00,44.8,27.0,29.82,ESE,110,2.0,5.0,49,0.00,,,0.00,weatherlink.com 1.10,2013-05-18 14:48:00,
2013-05-18 09:03:00,47.1,24.0,29.82,NE,45,2.0,10.0,41,0.00,,,0.00,weatherlink.com 1.10,2013-05-18 15:03:00,
2013-05-18 09:18:00,47.3,24.0,29.82,ESE,105,5.0,5.0,41,0.00,,,0.00,weatherlink.com 1.10,2013-05-18 15:18:00,
2013-05-18 09:33:00,47.4,23.0,29.81,East,80,3.0,5.0,39,0.00,,,0.00,weatherlink.com 1.10,2013-05-18 15:33:00,
2013-05-18 09:48:00,47.0,25.0,29.80,East,85,0.0,7.0,42,0.00,,,0.00,weatherlink.com 1.10,2013-05-18 15:48:00,
2013-05-18 10:03:00,48.2,25.0,29.79,ESE,110,0.0,7.0,41,0.00,,,0.00,weatherlink.com 1.10,2013-05-18 16:03:00,
2013-05-18 10:19:00,48.7,26.0,29.79,ESE,115,0.0,6.0,41,0.00,,,0.00,weatherlink.com 1.10,2013-05-18 16:19:00,
2013-05-18 10:34:00,48.6,24.0,29.79,ESE,108,0.0,9.0,39,0.00,,,0.00,weatherlink.com 1.10,2013-05-18 16:34:00,
2013-05-18 10:49:00,49.0,26.0,29.78,SE,133,1.0,6.0,41,0.00,,,0.00,weatherlink.com 1.10,2013-05-18 16:49:00,
2013-05-18 11:04:00,50.1,25.0,29.77,West,262,0.0,8.0,37,0.00,,,0.00,weatherlink.com 1.10,2013-05-18 17:04:00,
2013-05-18 11:19:00,53.3,27.0,29.76,East,96,1.0,8.0,37,0.00,,,0.00,weatherlink.com 1.10,2013-05-18 17:19:00,
2013-05-18 11:34:00,51.9,22.0,29.76,ESE,118,9.0,9.0,31,0.00,,,0.00,weatherlink.com 1.10,2013-05-18 17:34:00,
2013-05-18 11:49:00,53.2,25.0,29.75,ESE,109,8.0,9.0,34,0.00,,,0.00,weatherlink.com 1.10,2013-05-18 17:49:00,
2013-05-18 12:04:00,54.5,24.0,29.74,ESE,108,4.0,12.0,31,0.00,,,0.00,weatherlink.com 1.10,2013-05-18 18:04:00,
2013-05-18 12:19:00,55.5,23.0,29.73,ESE,110,5.0,9.0,28,0.00,,,0.00,weatherlink.com 1.10,2013-05-18 18:19:00,
2013-05-18 12:34:00,56.3,26.0,29.72,East,100,7.0,13.0,31,0.00,,,0.00,weatherlink.com 1.10,2013-05-18 18:34:00,
2013-05-18 12:49:00,57.0,24.0,29.72,East,94,3.0,14.0,28,0.00,,,0.00,weatherlink.com 1.10,2013-05-18 18:49:00,
2013-05-18 13:04:00,53.8,27.0,29.72,SW,230,3.0,12.0,36,0.00,,,0.00,weatherlink.com 1.10,2013-05-18 19:04:00,
2013-05-18 13:19:00,54.3,28.0,29.71,West,262,2.0,7.0,36,0.00,,,0.00,weatherlink.com 1.10,2013-05-18 19:19:00,
2013-05-18 13:34:00,56.2,25.0,29.71,ESE,111,4.0,10.0,30,0.00,,,0.00,weatherlink.com 1.10,2013-05-18 19:34:00,
2013-05-18 13:49:00,56.4,23.0,29.71,ESE,121,1.0,10.0,28,0.00,,,0.00,weatherlink.com 1.10,2013-05-18 19:49:00,
2013-05-18 14:04:00,58.6,25.0,29.69,SSW,192,0.0,7.0,27,0.00,,,0.00,weatherlink.com 1.10,2013-05-18 20:04:00,
2013-05-18 14:19:00,56.4,23.0,29.69,East,95,2.0,9.0,27,0.00,,,0.00,weatherlink.com 1.10,2013-05-18 20:19:00,
2013-05-18 14:34:00,53.7,21.0,29.71,ESE,103,3.0,14.0,28,0.00,,,0.00,weatherlink.com 1.10,2013-05-18 20:34:00,
2013-05-18 14:49:00,51.2,23.0,29.71,East,98,2.0,9.0,33,0.00,,,0.00,weatherlink.com 1.10,2013-05-18 20:49:00,
2013-05-18 15:04:00,52.4,25.0,29.72,East,96,1.0,9.0,35,0.00,,,0.00,weatherlink.com 1.10,2013-05-18 21:04:00,
2013-05-18 15:19:00,52.8,24.0,29.72,ESE,116,4.0,11.0,33,0.00,,,0.00,weatherlink.com 1.10,2013-05-18 21:19:00,
2013-05-18 15:34:00,50.4,25.0,29.74,ESE,115,0.0,9.0,38,0.00,,,0.00,weatherlink.com 1.10,2013-05-18 21:34:00,
2013-05-18 15:49:00,47.8,27.0,29.76,SE,146,0.0,9.0,45,0.00,,,0.00,weatherlink.com 1.10,2013-05-18 21:49:00,
2013-05-18 16:04:00,46.7,27.0,29.77,ESE,118,2.0,3.0,46,0.00,,,0.00,weatherlink.com 1.10,2013-05-18 22:04:00,
2013-05-18 16:19:00,46.6,26.0,29.77,ESE,116,5.0,10.0,45,0.00,,,0.00,weatherlink.com 1.10,2013-05-18 22:19:00,
2013-05-18 16:34:00,45.7,28.0,29.76,ESE,120,0.0,2.0,50,0.00,,,0.00,weatherlink.com 1.10,2013-05-18 22:34:00,
2013-05-18 16:49:00,46.4,28.0,29.76,West,272,1.0,2.0,49,0.00,,,0.00,weatherlink.com 1.10,2013-05-18 22:49:00,
2013-05-18 17:04:00,46.9,28.0,29.76,WSW,251,0.0,1.0,48,0.00,,,0.00,weatherlink.com 1.10,2013-05-18 23:04:00,
2013-05-18 17:20:00,48.5,28.0,29.75,WSW,246,0.0,4.0,45,0.00,,,0.00,weatherlink.com 1.10,2013-05-18 23:20:00,
2013-05-18 17:35:00,48.6,28.0,29.75,ESE,110,0.0,3.0,46,0.00,,,0.00,weatherlink.com 1.10,2013-05-18 23:35:00,
2013-05-18 17:50:00,47.8,27.0,29.75,SW,233,0.0,4.0,44,0.00,,,0.00,weatherlink.com 1.10,2013-05-18 23:50:00,
2013-05-18 18:05:00,46.3,29.0,29.78,SE,130,7.0,10.0,51,0.00,,,0.00,weatherlink.com 1.10,2013-05-19 00:05:00,
2013-05-18 18:20:00,41.5,34.0,29.80,East,101,3.0,11.0,74,0.00,,,0.00,weatherlink.com 1.10,2013-05-19 00:20:00,
2013-05-18 18:35:00,38.4,34.0,29.82,East,94,0.0,6.0,83,0.02,,,0.02,weatherlink.com 1.10,2013-05-19 00:35:00,
2013-05-18 18:50:00,37.1,34.0,29.83,SE,126,0.0,1.0,88,0.04,,,0.04,weatherlink.com 1.10,2013-05-19 00:50:00,
2013-05-18 19:05:00,36.9,34.0,29.83,WSW,237,0.0,1.0,89,0.05,,,0.05,weatherlink.com 1.10,2013-05-19 01:05:00,
2013-05-18 19:20:00,36.7,34.0,29.84,West,262,0.0,1.0,90,0.05,,,0.05,weatherlink.com 1.10,2013-05-19 01:20:00,
2013-05-18 19:35:00,36.9,35.0,29.83,West,260,0.0,1.0,91,0.03,,,0.05,weatherlink.com 1.10,2013-05-19 01:35:00,
2013-05-18 19:50:00,37.2,35.0,29.83,WSW,253,0.0,1.0,92,0.01,,,0.05,weatherlink.com 1.10,2013-05-19 01:50:00,
2013-05-18 20:05:00,37.1,35.0,29.83,WSW,252,0.0,1.0,92,0.00,,,0.05,weatherlink.com 1.10,2013-05-19 02:05:00,
2013-05-18 20:20:00,36.9,35.0,29.84,WSW,252,0.0,0.0,92,0.00,,,0.05,weatherlink.com 1.10,2013-05-19 02:20:00,
2013-05-18 20:35:00,36.6,35.0,29.85,WSW,252,0.0,0.0,92,0.00,,,0.05,weatherlink.com 1.10,2013-05-19 02:35:00,
2013-05-18 20:50:00,36.1,34.0,29.85,WSW,252,0.0,0.0,92,0.00,,,0.05,weatherlink.com 1.10,2013-05-19 02:50:00,
2013-05-18 21:05:00,35.6,34.0,29.85,WSW,252,0.0,0.0,92,0.00,,,0.05,weatherlink.com 1.10,2013-05-19 03:05:00,
2013-05-18 21:20:00,34.7,33.0,29.85,WSW,252,0.0,1.0,92,0.00,,,0.05,weatherlink.com 1.10,2013-05-19 03:20:00,
2013-05-18 21:35:00,34.0,32.0,29.85,WSW,252,0.0,0.0,93,0.00,,,0.05,weatherlink.com 1.10,2013-05-19 03:35:00,
2013-05-18 21:50:00,33.9,32.0,29.85,WSW,252,0.0,1.0,94,0.00,,,0.05,weatherlink.com 1.10,2013-05-19 03:50:00,
2013-05-18 22:05:00,34.1,33.0,29.84,WSW,252,0.0,0.0,94,0.00,,,0.05,weatherlink.com 1.10,2013-05-19 04:05:00,
2013-05-18 22:20:00,34.3,33.0,29.84,WSW,252,0.0,0.0,94,0.00,,,0.05,weatherlink.com 1.10,2013-05-19 04:20:00,
2013-05-18 22:35:00,33.9,32.0,29.84,WSW,252,0.0,0.0,94,0.00,,,0.05,weatherlink.com 1.10,2013-05-19 04:35:00,
2013-05-18 22:50:00,32.9,31.0,29.84,WSW,252,0.0,0.0,93,0.00,,,0.05,weatherlink.com 1.10,2013-05-19 04:50:00,
2013-05-18 23:05:00,32.3,31.0,29.84,WSW,252,0.0,0.0,94,0.00,,,0.05,weatherlink.com 1.10,2013-05-19 05:05:00,
2013-05-18 23:20:00,32.6,31.0,29.84,WSW,252,0.0,0.0,95,0.00,,,0.05,weatherlink.com 1.10,2013-05-19 05:20:00,
2013-05-18 23:35:00,33.3,32.0,29.84,WSW,252,0.0,1.0,96,0.00,,,0.05,weatherlink.com 1.10,2013-05-19 05:35:00,
2013-05-18 23:50:00,33.5,32.0,29.85,WSW,252,0.0,1.0,95,0.00,,,0.05,weatherlink.com 1.10,2013-05-19 05:50:00,